Location: Rio Tanui
(39.9167°N, 8.5167°E)
Time: 17:45:28
(UTC+00:00)

Meteor 2-2 Rocket - Pass Details

Date: 19 June 2024
Orbit: 851 x 928 km, 81.3° (Epoch: 14 July)

Event Time Altitude Azimuth Distance (km) Brightness Sun altitude
Rises 03:11:09 0° 346° (NNW) 3,432 7.7 -8.0°
Reaches altitude 10° 03:13:36 10° 344° (NNW) 2,488 7.0 -7.6°
Maximum altitude 03:19:07 61° 265° (W) 962 4.3 -6.8°
Drops below altitude 10° 03:24:38 10° 186° (S) 2,478 6.2 -6.0°
Sets 03:27:05 0° 183° (S) 3,417 7.0 -5.6°
